Current weather by "City, St" or "zip code"  
 

Current Conditions: Providence, Theodore Francis Green State Airport, RI

Overcast


62.0 F

Last Updated on Sep 18 2020, 10:51 am EDT
Humidity: 62%
Wind Speed: N 18.4 G 26.5 mph
Barometer 29.98 in
Dewpoint: 48.9 F
Visibility: 10.00 mi
Precip: --
Heat Index: NA
Wind Chill: 60 F
Current conditions at:

Providence, Theodore Francis Green State Airport, RI (KPVD)

Lat: 41.72249 Lon: 71.43247

Local Radar Image active severe weather and emergency alerts image image weather storm and storm spotter reports image weather observation monitoring service image
Local
Radar
Active
Alerts
Storm Reports Obs
Monitoring

Sign-up For Email & Text Message Weather Alert Notification Services



Advertise Here

Observation History for Providence, Theodore Francis Green State Airport, RI


Time Wind
(mph)
Vis
(mi)
Weather Precip (in) Temperature (F) Relative
Humidity
Wind
Chill
(F)
Heat
Index
(F)
Pressure
Air Dwpt altimeter
(in)
sea level
(mb)
Rmks
10:51 am EDT N 18.4 G 26.5 10.00 Overcast -- 62.0 48.9 62% 60 NA 29.98 1015.3
9:51 am EDT N 16.1 10.00 Overcast -- 62.0 51.1 67% 60 NA 29.98 1015.2
8:51 am EDT NE 18.4 G 24.2 10.00 Overcast -- 61.0 51.1 70% 58 NA 29.98 1015.2
7:51 am EDT N 18.4 G 25.3 10.00 Overcast -- 60.0 53.1 78% 57 NA 29.97 1014.9
6:51 am EDT NE 16.1 10.00 Overcast -- 60.0 53.1 78% 57 NA 29.97 1014.7
5:51 am EDT N 11.5 10.00 Overcast -- 61.0 54.0 78% 59 NA 29.96 1014.5
4:51 am EDT N 11.5 10.00 Overcast -- 62.0 53.1 73% 61 NA 29.94 1013.8
3:51 am EDT N 10.4 10.00 Overcast -- 62.0 53.1 73% 61 NA 29.94 1013.9
2:51 am EDT N 9.2 10.00 Overcast -- 62.0 54.0 75% 61 NA 29.95 1014.2
1:51 am EDT NE 6.9 10.00 Fair -- 63.0 55.9 78% 63 NA 29.97 1014.9
12:51 am EDT N 9.2 10.00 Fair -- 65.0 57.0 76% NA NA 29.98 1015.3
11:51 pm EDT N 8.1 10.00 Overcast -- 66.0 61.0 84% NA NA 29.98 1015.3
10:51 pm EDT N 0.0 10.00 Overcast -- 66.0 63.0 90% NA NA 29.98 1015.2
9:51 pm EDT N 0.0 10.00 Overcast -- 66.0 62.1 87% NA NA 29.99 1015.5
8:51 pm EDT N 0.0 10.00 Overcast -- 67.0 62.1 84% NA NA 29.99 1015.6
7:51 pm EDT SW 6.9 10.00 Overcast -- 68.0 62.1 81% NA NA 29.99 1015.7
6:51 pm EDT SW 9.2 10.00 Overcast -- 70.0 62.1 76% NA NA 29.98 1015.1
5:51 pm EDT SW 9.2 10.00 Fair -- 72.0 62.1 71% NA NA 29.97 1014.8
4:51 pm EDT SW 9.2 10.00 Overcast -- 75.0 54.0 48% NA NA 29.97 1014.9
3:51 pm EDT SW 10.4 10.00 Overcast -- 76.0 57.9 54% NA NA 29.98 1015.1
2:51 pm EDT S 16.1 G 20.7 10.00 Mostly Cloudy -- 77.0 60.1 56% NA NA 29.99 1015.3
1:51 pm EDT S 16.1 10.00 Mostly Cloudy -- 78.0 59.0 52% NA NA 29.99 1015.6
12:51 pm EDT SW 11.5 G 18.4 10.00 Mostly Cloudy -- 78.0 57.9 50% NA NA 30.01 1016.2
11:51 am EDT SW 10.4 G 23.0 10.00 Mostly Cloudy -- 75.0 57.0 54% NA NA 30.02 1016.6

Regional Weather Observation


Providence, Theodore Francis Green State Airport, RI (KPVD)

Overcast
62.0 F

Taunton, Taunton Municipal Airport, MA (KTAN)

Overcast
62.0 F

N. Kingston / Quonset, RI (KOQU)

Overcast and Windy
63.0 F

Worcester, Worcester Regional Airport, MA (KORH)

Overcast
59.0 F

Newport, Newport State Airport, RI (KUUU)

Overcast
65.0 F

Norwood, Norwood Memorial Airport, MA (KOWD)

Overcast
63.0 F